SCP
0 0 0 0 0 0 0 0 0 0 0 0 0 0 0 0 0 0 0 0 0 0 0 0 0 0 0 0 0 0 0 0 0 0 0 0 0 0
0 0 0 0 0 0 0 0 0 0 0 0 0 0 0 0 0 0 0 0 0 0 0 0 0 0 0 0 0 0 0 0 0 0 0 0 0 0
0 0 0 0 0 0 0 0 0 0 0 0 0 0 0 0 0 0 0 0 0 0 0 0 0 0 0 0 0 0 0 0 0 0 0 0 0 0
0 0 0 0 0 0 0 0 0 0 0 0 0 0 0 0 0 0 0 0 0 0 0 0 0 0 0 0 0 0 0 0 0 0 0 0 0 0
0 0 0 0 0 0 0 0 0 0 0 0 0 0 0 0 0 0 0 0 0 0 0 0 0 0 0 0 0 0 0 0 0 0 0 0 0 0
0 0 0 0 0 0 0 0 0 0 0 0 0 0 0 0 0 0 0 0 0 0 0 0 0 0 0 0 0 0 0 0 0 0 0 0 0 0
0 0 0 0 0 0 0 0 0 0 0 0 0 0 0 0 0 0 0 0 0 0 0 0 0 0 0 0 0 0 0 0 0 0 -0 0 0 0
0 0 0 0 0 0 0 0 0 0 0 0 0 0 0 0 0 0 0 0 0 0 0 0 0 0 0 0 0 0 0 0 0 0 0 0 0 0
0 0 0 0 0 0 0 0 0 0 0 0 0 0 0 0 0 0 0 0 0 0 0 0 0 0 0 0 0 0 0 0 0 0 0 0 0 0
0 0 0 0 0 0 0 0 0 0 0 0 0 0 0 0 0 0 0 0 0 0 0 0 0 0 0 0 0 0 0 0 0 0 0 0 0 0
0 0 0 0 0 0 0 0 0 0 0 0 0 0 0 0 0 0 0 0 0 0 0 0 0 0 0 0 0 0 0 0 0 0 0 0 0 0
0 0 0 0 0 0 0 0 0 0 0 0 0 0 0 0 0 0 0 0 0 0 0 0 0 0 0 0 0 0 0 0 0 0 0 0 0 0
0 0 0 0 0 0 0 0 0 0 0 0 0 0 0 0 0 0 0 0 0 0 0 0 0 0 0 0 0 0 0 0 0 0 0 0 0 0
0 0 0 0 0 0 0 0 0 0 0 0 0 0 0 0 0 0 0 0 0 0 0 0 0 0 0 0 0 0 0 0 0 0 0 0 0 0
0 0 0 0 0 0 0 0 0 0 0 0 0 0 0 0 0 0 0 0 0 0 0 0 0 0 0 0 0 0 0 0 0 0 0 0 0 0
0 0 0 0 0 0 0 0 0 0 0 0 0 0 0 0 0 0 0 0 0 0 0 0 0 0 0 0 0 0 0 0 0 0 0 0 0 0
0 0 0 0 0 0 0 0 0 0 0 0 0 0 0 0 0 0 0 0 0 0 0 0 0 0 0 0 0 0 0 0 0 0 0 0 0 0
0 0 0 0 0 0 0 0 0 0 0 0 0 0 0 0 0 0 0 0 0 0 0 0 0 0 0 0 0 0 0 0 0 0 0 0 0 0
0 0 0 0 0 0 0 0 0 0 0 0 0 0 0 0 0 0 0 0 0 0 0 0 0 0 0 0 0 0 0 0 0 0 0 0 0 0
0 0 0 0 0 0 0 0 0 0 0 0 0 0 0 0 0 0 0 0 0 0 0 0 0 0 0 0 0 0 0 0 0 0 0 0 0 0
0 -0 0 0 0 0 0 0 0 0 0 0 0 0 0 -0 0 0 0 0 0 0 0 0 0 0 0 0 0 0 0 0 0 0 0 0 0 0
0 0 0 0 0 0 0 0 0 0 0 0 0 0 0 0 0 0 0 0 0 0 0 0 0 0 0 0 0 0 0 0 0 0 0 0 0 0
-0 -0 0 0 0 0 0 0 0 0 0 0 0 0 0 0 0 0 0 0 -0 0 0 0 0 0 0 0 0 0 0 0 0 0 0 0 0 0
Wind_Speed_500mb
62 67 70 65 55 54 55 56 53 47 41 37 35 28 26 26 31 32 32 31 40 34 38 35 46 44 51 54 46 45 55 52 55 55 44 38 38 37
50 57 57 61 61 62 59 64 54 53 42 28 29 28 23 24 26 25 28 38 37 35 37 36 44 49 49 60 48 50 56 51 52 53 46 38 37 34
52 58 53 59 62 62 49 53 58 48 46 32 27 29 27 23 23 25 27 28 29 38 37 36 46 46 41 57 52 51 44 48 56 51 40 38 36 37
40 49 63 51 46 58 49 47 59 40 44 38 27 30 29 26 25 22 25 27 28 35 37 33 43 45 41 44 55 54 57 63 54 49 40 39 38 43
35 44 49 58 56 57 51 39 59 59 46 41 35 30 28 26 23 24 26 26 27 32 38 34 36 38 41 46 64 58 57 65 58 52 51 47 45 50
40 40 40 46 61 62 52 51 47 66 44 44 38 34 30 27 26 26 27 29 27 26 34 32 36 36 41 48 73 64 62 62 60 55 49 51 52 51
41 39 37 44 52 63 55 51 48 62 45 46 42 36 37 31 31 29 28 27 26 28 27 31 33 36 40 45 66 72 70 68 56 52 52 53 53 52
41 39 37 39 45 59 76 57 53 58 45 48 44 40 39 34 32 29 28 30 27 29 33 32 32 37 27 37 56 78 68 71 70 59 56 53 53 51
40 38 40 36 41 44 74 67 59 59 48 43 42 40 39 35 33 28 25 28 29 25 32 27 26 37 46 37 54 83 67 64 62 60 63 57 54 51
29 33 37 37 37 41 70 66 47 61 48 39 33 34 34 37 31 29 26 24 26 21 28 18 24 30 45 50 53 82 76 69 69 59 64 57 55 50
25 28 31 34 36 52 59 58 49 56 51 42 33 38 40 32 34 23 23 28 23 19 25 18 29 30 38 47 55 81 69 69 66 67 64 58 59 54
20 26 27 39 41 59 58 59 56 50 46 39 38 37 33 31 37 30 22 26 23 17 22 23 25 23 22 40 56 84 70 66 71 66 65 61 60 58
22 20 29 41 57 53 50 54 54 48 43 39 33 29 29 34 40 34 26 23 24 17 13 22 22 35 25 36 57 79 77 63 76 62 63 64 64 65
20 20 33 43 53 57 50 52 51 43 40 37 35 37 33 37 33 30 31 38 32 27 19 18 24 39 25 52 69 63 72 73 85 80 65 65 59 57
23 36 38 54 60 57 46 49 45 35 36 37 38 35 37 31 26 31 33 39 49 36 30 19 36 35 23 42 68 70 67 78 74 65 64 62 58 65
36 35 45 53 50 51 52 44 29 30 30 38 38 33 25 25 24 29 29 31 43 37 30 29 46 34 34 30 64 63 66 71 70 65 59 66 60 55
38 46 51 52 48 43 38 29 31 30 31 34 41 25 21 21 22 15 21 25 31 34 24 35 35 39 37 37 58 73 70 74 69 68 71 65 61 53
39 47 52 42 36 32 28 25 24 29 33 32 23 19 16 18 23 19 25 26 31 29 27 32 32 33 36 36 48 64 74 73 58 61 65 48 49 44
28 26 39 35 26 23 21 21 20 20 25 22 20 19 23 27 31 21 26 30 29 27 30 30 34 40 44 37 39 68 70 60 50 57 55 47 46 47
27 33 35 32 22 19 17 15 17 19 23 27 25 24 29 30 32 21 26 29 35 32 29 29 38 45 41 43 50 59 60 60 59 54 41 48 54 57
14 25 32 33 21 16 15 17 18 23 28 21 19 18 21 31 31 27 26 31 29 32 34 31 43 45 43 40 33 41 51 49 48 45 54 62 58 56
10 14 20 25 20 19 20 21 26 30 28 19 18 19 19 28 33 31 31 27 33 35 32 31 43 45 36 41 41 45 51 47 48 45 49 53 49 55
13 17 19 20 20 22 22 25 31 30 28 24 21 17 13 20 25 30 28 25 30 37 34 32 40 44 41 41 43 47 50 60 61 58 59 54 55 52
Wind_Direction_500mb
231 233 233 228 226 236 234 233 238 233 228 235 231 232 226 232 229 233 225 241 227 224 221 221 213 208 216 201 205 203 195 189 200 211 209 205 200 199
221 221 227 228 230 235 233 229 228 227 234 228 226 217 221 224 232 221 219 224 225 221 217 220 210 209 214 199 203 203 201 207 204 204 201 195 200 200
237 229 224 234 229 226 227 219 226 228 221 221 217 217 216 216 224 222 216 215 229 215 213 214 208 215 213 199 193 191 192 194 197 212 203 196 199 195
234 234 226 204 206 219 217 217 216 214 212 215 217 214 211 218 216 215 209 213 210 216 208 209 212 222 220 206 197 202 194 195 207 200 208 199 190 186
230 231 226 225 212 200 212 213 216 214 201 208 212 209 210 211 206 202 202 202 201 219 208 209 212 216 218 209 194 196 197 201 206 214 214 200 187 185
226 231 228 222 217 212 203 211 217 200 206 201 206 205 205 202 199 192 191 193 191 205 205 212 216 218 219 209 196 195 194 195 198 195 196 197 189 188
228 224 225 222 214 207 203 207 206 205 191 196 202 202 202 198 196 194 195 193 198 199 208 215 220 224 227 216 203 196 194 192 189 193 192 197 191 193
223 222 218 220 217 209 199 198 205 198 197 192 198 202 202 204 192 196 194 193 198 203 201 207 204 210 212 224 208 197 199 198 202 200 197 194 194 195
222 218 212 219 219 212 198 198 200 193 184 194 199 200 198 198 189 188 193 203 202 208 189 206 227 227 219 206 207 196 198 198 202 197 195 192 196 197
200 204 213 221 216 198 190 187 188 193 183 184 201 199 199 192 195 189 199 204 203 196 189 218 239 235 222 217 204 194 199 200 206 199 195 193 196 196
190 205 209 206 196 179 189 188 189 192 183 185 205 201 202 191 189 185 201 203 210 216 213 230 245 240 222 212 200 189 193 199 201 198 195 193 197 197
209 185 194 177 177 171 175 179 181 177 181 182 198 202 205 200 192 192 198 207 213 217 230 217 236 204 202 204 196 189 191 188 194 194 201 193 198 202
169 177 176 177 165 171 165 164 167 168 172 180 184 184 195 195 193 202 213 213 215 232 239 207 213 184 178 191 185 188 194 196 195 197 198 204 201 203
146 152 158 152 159 157 152 162 162 161 171 179 184 189 196 193 200 211 226 226 219 221 213 216 206 194 205 184 180 183 190 193 194 195 196 200 205 207
118 139 144 145 143 150 150 153 157 166 174 180 190 187 183 193 211 224 240 226 219 229 243 226 203 201 192 198 190 185 182 190 190 196 205 206 211 207
115 136 140 140 150 152 149 155 168 173 176 188 187 183 192 206 218 227 226 213 214 225 224 212 196 194 208 195 204 192 191 190 191 199 207 204 216 224
116 135 137 138 141 146 153 162 168 174 179 185 185 193 205 216 217 201 212 205 207 204 223 189 201 204 214 218 199 202 197 194 195 204 207 217 215 226
131 141 142 138 143 156 161 166 172 179 185 185 194 208 219 223 219 227 214 210 197 211 213 202 196 207 202 204 202 198 201 202 205 211 212 222 226 219
140 146 155 156 149 153 160 175 185 188 183 195 208 228 230 234 222 230 216 205 214 214 215 206 209 197 198 201 204 195 197 194 191 216 217 211 208 199
162 166 171 168 171 172 179 190 194 191 194 204 219 232 239 224 220 233 213 217 228 211 210 211 200 194 207 203 195 194 197 201 209 209 221 207 201 197
136 179 187 189 192 205 210 209 205 200 193 207 220 231 225 223 234 244 231 217 224 207 210 220 205 193 201 201 201 201 203 211 213 227 217 200 196 208
147 163 180 197 211 217 224 217 201 197 206 228 237 234 226 220 223 229 213 234 211 211 215 223 202 197 205 207 211 205 205 213 203 200 206 199 214 207
222 214 212 217 219 212 206 201 200 211 227 254 248 238 238 205 226 219 227 226 220 217 225 221 207 201 204 203 210 220 217 196 192 201 208 213 211 217
Wind_Speed_850mb
62 67 70 65 55 54 55 56 53 47 41 37 35 28 26 26 31 32 32 31 40 34 38 35 46 44 51 54 46 45 55 52 55 55 44 38 38 37
50 57 57 61 61 62 59 64 54 53 42 28 29 28 23 24 26 25 28 38 37 35 37 36 44 49 49 60 48 50 56 51 52 53 46 38 37 34
52 58 53 59 62 62 49 53 58 48 46 32 27 29 27 23 23 25 27 28 29 38 37 36 46 46 41 57 52 51 44 48 56 51 40 38 36 37
40 49 63 51 46 58 49 47 59 40 44 38 27 30 29 26 25 22 25 27 28 35 37 33 43 45 41 44 55 54 57 63 54 49 40 39 38 43
35 44 49 58 56 57 51 39 59 59 46 41 35 30 28 26 23 24 26 26 27 32 38 34 36 38 41 46 64 58 57 65 58 52 51 47 45 50
40 40 40 46 61 62 52 51 47 66 44 44 38 34 30 27 26 26 27 29 27 26 34 32 36 36 41 48 73 64 62 62 60 55 49 51 52 51
41 39 37 44 52 63 55 51 48 62 45 46 42 36 37 31 31 29 28 27 26 28 27 31 33 36 40 45 66 72 70 68 56 52 52 53 53 52
41 39 37 39 45 59 76 57 53 58 45 48 44 40 39 34 32 29 28 30 27 29 33 32 32 37 27 37 56 78 68 71 70 59 56 53 53 51
40 38 40 36 41 44 74 67 59 59 48 43 42 40 39 35 33 28 25 28 29 25 32 27 26 37 46 37 54 83 67 64 62 60 63 57 54 51
29 33 37 37 37 41 70 66 47 61 48 39 33 34 34 37 31 29 26 24 26 21 28 18 24 30 45 50 53 82 76 69 69 59 64 57 55 50
25 28 31 34 36 52 59 58 49 56 51 42 33 38 40 32 34 23 23 28 23 19 25 18 29 30 38 47 55 81 69 69 66 67 64 58 59 54
20 26 27 39 41 59 58 59 56 50 46 39 38 37 33 31 37 30 22 26 23 17 22 23 25 23 22 40 56 84 70 66 71 66 65 61 60 58
22 20 29 41 57 53 50 54 54 48 43 39 33 29 29 34 40 34 26 23 24 17 13 22 22 35 25 36 57 79 77 63 76 62 63 64 64 65
20 20 33 43 53 57 50 52 51 43 40 37 35 37 33 37 33 30 31 38 32 27 19 18 24 39 25 52 69 63 72 73 85 80 65 65 59 57
23 36 38 54 60 57 46 49 45 35 36 37 38 35 37 31 26 31 33 39 49 36 30 19 36 35 23 42 68 70 67 78 74 65 64 62 58 65
36 35 45 53 50 51 52 44 29 30 30 38 38 33 25 25 24 29 29 31 43 37 30 29 46 34 34 30 64 63 66 71 70 65 59 66 60 55
38 46 51 52 48 43 38 29 31 30 31 34 41 25 21 21 22 15 21 25 31 34 24 35 35 39 37 37 58 73 70 74 69 68 71 65 61 53
39 47 52 42 36 32 28 25 24 29 33 32 23 19 16 18 23 19 25 26 31 29 27 32 32 33 36 36 48 64 74 73 58 61 65 48 49 44
28 26 39 35 26 23 21 21 20 20 25 22 20 19 23 27 31 21 26 30 29 27 30 30 34 40 44 37 39 68 70 60 50 57 55 47 46 47
27 33 35 32 22 19 17 15 17 19 23 27 25 24 29 30 32 21 26 29 35 32 29 29 38 45 41 43 50 59 60 60 59 54 41 48 54 57
14 25 32 33 21 16 15 17 18 23 28 21 19 18 21 31 31 27 26 31 29 32 34 31 43 45 43 40 33 41 51 49 48 45 54 62 58 56
10 14 20 25 20 19 20 21 26 30 28 19 18 19 19 28 33 31 31 27 33 35 32 31 43 45 36 41 41 45 51 47 48 45 49 53 49 55
13 17 19 20 20 22 22 25 31 30 28 24 21 17 13 20 25 30 28 25 30 37 34 32 40 44 41 41 43 47 50 60 61 58 59 54 55 52
Wind_Direction_850mb
231 233 233 228 226 236 234 233 238 233 228 235 231 232 226 232 229 233 225 241 227 224 221 221 213 208 216 201 205 203 195 189 200 211 209 205 200 199
221 221 227 228 230 235 233 229 228 227 234 228 226 217 221 224 232 221 219 224 225 221 217 220 210 209 214 199 203 203 201 207 204 204 201 195 200 200
237 229 224 234 229 226 227 219 226 228 221 221 217 217 216 216 224 222 216 215 229 215 213 214 208 215 213 199 193 191 192 194 197 212 203 196 199 195
234 234 226 204 206 219 217 217 216 214 212 215 217 214 211 218 216 215 209 213 210 216 208 209 212 222 220 206 197 202 194 195 207 200 208 199 190 186
230 231 226 225 212 200 212 213 216 214 201 208 212 209 210 211 206 202 202 202 201 219 208 209 212 216 218 209 194 196 197 201 206 214 214 200 187 185
226 231 228 222 217 212 203 211 217 200 206 201 206 205 205 202 199 192 191 193 191 205 205 212 216 218 219 209 196 195 194 195 198 195 196 197 189 188
228 224 225 222 214 207 203 207 206 205 191 196 202 202 202 198 196 194 195 193 198 199 208 215 220 224 227 216 203 196 194 192 189 193 192 197 191 193
223 222 218 220 217 209 199 198 205 198 197 192 198 202 202 204 192 196 194 193 198 203 201 207 204 210 212 224 208 197 199 198 202 200 197 194 194 195
222 218 212 219 219 212 198 198 200 193 184 194 199 200 198 198 189 188 193 203 202 208 189 206 227 227 219 206 207 196 198 198 202 197 195 192 196 197
200 204 213 221 216 198 190 187 188 193 183 184 201 199 199 192 195 189 199 204 203 196 189 218 239 235 222 217 204 194 199 200 206 199 195 193 196 196
190 205 209 206 196 179 189 188 189 192 183 185 205 201 202 191 189 185 201 203 210 216 213 230 245 240 222 212 200 189 193 199 201 198 195 193 197 197
209 185 194 177 177 171 175 179 181 177 181 182 198 202 205 200 192 192 198 207 213 217 230 217 236 204 202 204 196 189 191 188 194 194 201 193 198 202
169 177 176 177 165 171 165 164 167 168 172 180 184 184 195 195 193 202 213 213 215 232 239 207 213 184 178 191 185 188 194 196 195 197 198 204 201 203
146 152 158 152 159 157 152 162 162 161 171 179 184 189 196 193 200 211 226 226 219 221 213 216 206 194 205 184 180 183 190 193 194 195 196 200 205 207
118 139 144 145 143 150 150 153 157 166 174 180 190 187 183 193 211 224 240 226 219 229 243 226 203 201 192 198 190 185 182 190 190 196 205 206 211 207
115 136 140 140 150 152 149 155 168 173 176 188 187 183 192 206 218 227 226 213 214 225 224 212 196 194 208 195 204 192 191 190 191 199 207 204 216 224
116 135 137 138 141 146 153 162 168 174 179 185 185 193 205 216 217 201 212 205 207 204 223 189 201 204 214 218 199 202 197 194 195 204 207 217 215 226
131 141 142 138 143 156 161 166 172 179 185 185 194 208 219 223 219 227 214 210 197 211 213 202 196 207 202 204 202 198 201 202 205 211 212 222 226 219
140 146 155 156 149 153 160 175 185 188 183 195 208 228 230 234 222 230 216 205 214 214 215 206 209 197 198 201 204 195 197 194 191 216 217 211 208 199
162 166 171 168 171 172 179 190 194 191 194 204 219 232 239 224 220 233 213 217 228 211 210 211 200 194 207 203 195 194 197 201 209 209 221 207 201 197
136 179 187 189 192 205 210 209 205 200 193 207 220 231 225 223 234 244 231 217 224 207 210 220 205 193 201 201 201 201 203 211 213 227 217 200 196 208
147 163 180 197 211 217 224 217 201 197 206 228 237 234 226 220 223 229 213 234 211 211 215 223 202 197 205 207 211 205 205 213 203 200 206 199 214 207
222 214 212 217 219 212 206 201 200 211 227 254 248 238 238 205 226 219 227 226 220 217 225 221 207 201 204 203 210 220 217 196 192 201 208 213 211 217